Weather History for KBUF - March, 2013

Change the Weather History Date:

Tuesday, March 26, 2013

  Actual Average Record
Temperature  
Mean Temperature 38 °F 38 °F  
Max Temperature 44 °F 46 °F 81 °F (1945)
Min Temperature 31 °F 29 °F 7 °F (1960)
Degree Days  
Heating Degree Days 27 27  
Month to date heating degree days 861 830  
Since 1 July heating degree days 5181 5574  
Cooling Degree Days 0 0  
Month to date cooling degree days 0 0  
Year to date cooling degree days 0 0  
Moisture  
Dew Point 29 °F    
Average Humidity 70    
Maximum Humidity 82    
Minimum Humidity 57    
Precipitation  
Precipitation 0.00 in 0.10 in 1.14 in (1877)
Month to date precipitation 0.69 2.39  
Year to date precipitation 6.24 8.06  
Snow  
Snow 0.00 in 0.30 in 7.40 in (1955)
Month to date snowfall 8.4 11.6  
Since 1 July snowfall 57.1 90.4  
Snow Depth 0.00 in    
Sea Level Pressure  
Sea Level Pressure 29.87 in    
Wind  
Wind Speed 9 mph (WSW)    
Max Wind Speed 21 mph    
Max Gust Speed 24 mph    
Visibility 10 miles    
Events Snow    
T = Trace of Precipitation, MM = Missing Value Source: NWS Daily Summary

Daily Weather History Graph

Daily Weather History Graph

Search for Another Location

Airport or City:

Trip Planner

Search our weather history database for the weather conditions in past years. The results will help you decide how hot, cold, wet, or windy it might be!

Date:

Astronomy

Mar. 26, 2013 Rise Set
Actual Time 7:07 AM EDT 7:34 PM EDT
Civil Twilight 6:38 AM EDT 8:02 PM EDT
Nautical Twilight 6:05 AM EDT 8:36 PM EDT
Astronomical Twilight 5:30 AM EDT 9:11 PM EDT
Moon 7:09 PM EDT 6:23 AM EDT
Length of Visible Light 13h 24m
Length of Day
12h 27m
Waxing Gibbous, 99% of the Moon is Illuminated
Mar 26
Waxing Gibbous
Mar 27
Full
Apr 3
Last Quarter
Apr 10
New
Apr 18
First Quarter

Hourly Weather History & Observations

Time (EDT) Temp. Windchill Dew Point Humidity Pressure Visibility Wind Dir Wind Speed Gust Speed Precip Events Conditions
12:54 AM 34.0 °F 29.8 °F 27.0 °F 75% 29.76 in 10.0 mi WNW 4.6 mph - N/A   Mostly Cloudy
1:54 AM 33.1 °F 27.7 °F 27.0 °F 78% 29.77 in 10.0 mi West 5.8 mph - N/A   Mostly Cloudy
2:54 AM 33.1 °F 27.7 °F 27.0 °F 78% 29.78 in 10.0 mi West 5.8 mph - N/A   Mostly Cloudy
3:54 AM 34.0 °F 28.8 °F 26.1 °F 73% 29.78 in 10.0 mi WSW 5.8 mph - N/A   Mostly Cloudy
4:54 AM 32.0 °F 26.4 °F 27.0 °F 82% 29.78 in 10.0 mi SSW 5.8 mph - N/A   Overcast
5:54 AM 33.1 °F 28.7 °F 28.0 °F 82% 29.79 in 10.0 mi SW 4.6 mph - N/A   Overcast
6:54 AM 33.1 °F 28.7 °F 28.0 °F 82% 29.81 in 10.0 mi SW 4.6 mph - N/A   Overcast
7:54 AM 34.0 °F 28.8 °F 28.9 °F 82% 29.83 in 10.0 mi WSW 5.8 mph - N/A   Overcast
8:54 AM 35.1 °F 30.1 °F 28.9 °F 78% 29.84 in 10.0 mi SW 5.8 mph - N/A   Overcast
9:54 AM 37.0 °F 31.6 °F 28.9 °F 73% 29.86 in 10.0 mi WSW 6.9 mph - N/A   Overcast
10:54 AM 39.0 °F 34.8 °F 30.9 °F 73% 29.87 in 10.0 mi Variable 5.8 mph - N/A   Mostly Cloudy
11:54 AM 42.1 °F 37.7 °F 28.0 °F 58% 29.88 in 10.0 mi West 6.9 mph - N/A   Mostly Cloudy
12:54 PM 43.0 °F 37.2 °F 32.0 °F 65% 29.88 in 10.0 mi SW 10.4 mph - N/A   Mostly Cloudy
1:54 PM 42.1 °F 34.5 °F 32.0 °F 67% 29.88 in 10.0 mi SW 15.0 mph - N/A   Mostly Cloudy
2:54 PM 42.1 °F 34.5 °F 30.9 °F 65% 29.88 in 10.0 mi WSW 15.0 mph - N/A   Scattered Clouds
3:54 PM 43.0 °F 34.8 °F 32.0 °F 65% 29.88 in 10.0 mi WSW 18.4 mph - N/A   Mostly Cloudy
4:54 PM 41.0 °F 33.5 °F 32.0 °F 70% 29.90 in 10.0 mi SW 13.8 mph - N/A   Mostly Cloudy
5:54 PM 39.9 °F 32.9 °F 32.0 °F 73% 29.90 in 10.0 mi SW 11.5 mph - N/A   Mostly Cloudy
6:54 PM 37.9 °F 31.5 °F 30.0 °F 73% 29.91 in 10.0 mi SW 9.2 mph - N/A   Mostly Cloudy
7:54 PM 37.9 °F 31.5 °F 28.9 °F 70% 29.93 in 10.0 mi SW 9.2 mph - N/A   Mostly Cloudy
8:54 PM 36.0 °F 28.0 °F 30.0 °F 79% 29.96 in 10.0 mi WSW 11.5 mph - N/A   Mostly Cloudy
9:54 PM 35.1 °F 28.6 °F 30.9 °F 85% 29.97 in 10.0 mi SW 8.1 mph - 0.00 in Snow Light Snow
10:54 PM 34.0 °F 29.8 °F 30.0 °F 85% 29.97 in 10.0 mi SSW 4.6 mph - 0.00 in   Mostly Cloudy
11:54 PM 34.0 °F 28.8 °F 28.9 °F 82% 29.98 in 10.0 mi SW 5.8 mph - N/A   Partly Cloudy